DLH5E EDDM-EDDH

Flight info

Callsign DLH5E
Flight time 0h 52m
Altitude 36000
Route INPUD2N/26R INPUD Y102 UPALA M726 NARUS DCT ABGUS DCT DIRBO T902 RARUP RARUP3S
Aircraft A359/H-SDE2E3GHIJ3J4J5LM1ORWXY/LB1D1

Departure

Time 2026-05-04 19:11
Airport Munich Airport (EDDM)

Arrival

Time 2026-05-04 20:03
Airport Hamburg Helmut Schmidt Airport (EDDH)
Time Latitude Longitude Altitude Speed Heading
2026-05-04 18:36 48.35469 11.79734 1476 ft 0 kts 83°
2026-05-04 18:53 48.35468 11.79727 1492 ft 3 kts 83°
2026-05-04 18:53 48.35465 11.79687 1485 ft 4 kts 83°
2026-05-04 18:54 48.35462 11.79647 1476 ft 4 kts 85°
2026-05-04 18:54 48.35463 11.79609 1482 ft 4 kts 116°
2026-05-04 18:54 48.35479 11.79586 1476 ft 2 kts 172°
2026-05-04 18:54 48.35500 11.79582 1478 ft 4 kts 173°
2026-05-04 18:55 48.35513 11.79580 1476 ft 0 kts 173°
2026-05-04 18:59 48.35512 11.79579 1476 ft 1 kts 176°
2026-05-04 18:59 48.35488 11.79554 1476 ft 5 kts 230°
2026-05-04 18:59 48.35484 11.79494 1479 ft 7 kts 280°
2026-05-04 19:00 48.35520 11.79448 1477 ft 8 kts 338°
2026-05-04 19:00 48.35582 11.79431 1480 ft 10 kts 352°
2026-05-04 19:00 48.35661 11.79416 1480 ft 13 kts 353°
2026-05-04 19:00 48.35744 11.79402 1486 ft 11 kts 353°
2026-05-04 19:01 48.35826 11.79390 1484 ft 13 kts 354°
2026-05-04 19:01 48.35890 11.79416 1476 ft 8 kts 50°
2026-05-04 19:01 48.35923 11.79490 1478 ft 9 kts 36°
2026-05-04 19:01 48.35987 11.79496 1484 ft 5 kts 354°
2026-05-04 19:02 48.36004 11.79494 1476 ft 1 kts 354°
2026-05-04 19:02 48.36073 11.79483 1479 ft 13 kts 355°
2026-05-04 19:02 48.36163 11.79468 1480 ft 12 kts 358°
2026-05-04 19:02 48.36217 11.79542 1478 ft 11 kts 72°
2026-05-04 19:03 48.36229 11.79668 1484 ft 13 kts 81°
2026-05-04 19:03 48.36242 11.79822 1483 ft 17 kts 83°
2026-05-04 19:03 48.36258 11.80039 1492 ft 23 kts 84°
2026-05-04 19:03 48.36277 11.80287 1479 ft 25 kts 83°
2026-05-04 19:04 48.36298 11.80556 1492 ft 27 kts 83°
2026-05-04 19:04 48.36319 11.80843 1487 ft 29 kts 83°
2026-05-04 19:04 48.36343 11.81146 1488 ft 30 kts 83°
2026-05-04 19:04 48.36368 11.81461 1480 ft 29 kts 84°
2026-05-04 19:05 48.36389 11.81751 1483 ft 22 kts 85°
2026-05-04 19:05 48.36394 11.81933 1478 ft 15 kts 99°
2026-05-04 19:05 48.36400 11.82094 1489 ft 14 kts 75°
2026-05-04 19:05 48.36469 11.82135 1477 ft 11 kts 355°
2026-05-04 19:06 48.36543 11.82123 1478 ft 10 kts 352°
2026-05-04 19:06 48.36551 11.82121 1481 ft 0 kts 352°
2026-05-04 19:08 48.36553 11.82120 1476 ft 2 kts 352°
2026-05-04 19:09 48.36584 11.82111 1476 ft 7 kts 347°
2026-05-04 19:09 48.36636 11.82071 1476 ft 10 kts 322°
2026-05-04 19:09 48.36678 11.81995 1479 ft 8 kts 284°
2026-05-04 19:09 48.36676 11.81965 1481 ft 0 kts 263°
2026-05-04 19:10 48.36676 11.81957 1483 ft 10 kts 263°
2026-05-04 19:10 48.36635 11.81430 1482 ft 90 kts 263°
2026-05-04 19:10 48.36538 11.80163 1476 ft 155 kts 264°
2026-05-04 19:11 48.36399 11.78432 2046 ft 167 kts 263°
2026-05-04 19:11 48.36279 11.76668 2793 ft 178 kts 263°
2026-05-04 19:11 48.36134 11.74657 3137 ft 209 kts 262°
2026-05-04 19:11 48.35953 11.72362 3561 ft 231 kts 262°
2026-05-04 19:12 48.35795 11.69916 4324 ft 238 kts 268°
2026-05-04 19:12 48.37303 11.65694 6134 ft 249 kts 329°
2026-05-04 19:12 48.39002 11.64844 6733 ft 270 kts 347°
2026-05-04 19:13 48.40887 11.64236 7453 ft 282 kts 342°
2026-05-04 19:13 48.42781 11.63377 8438 ft 287 kts 340°
2026-05-04 19:13 48.44697 11.62434 9440 ft 292 kts 338°
2026-05-04 19:13 48.46645 11.61431 10344 ft 302 kts 337°
2026-05-04 19:14 48.48707 11.60341 10799 ft 327 kts 337°
2026-05-04 19:14 48.50935 11.59154 11234 ft 350 kts 337°
2026-05-04 19:14 48.53270 11.57923 12027 ft 359 kts 338°
2026-05-04 19:14 48.55655 11.56681 12931 ft 366 kts 338°
2026-05-04 19:15 48.58087 11.55421 13799 ft 373 kts 338°
2026-05-04 19:15 48.60554 11.54144 14622 ft 377 kts 338°
2026-05-04 19:15 48.63052 11.52849 15474 ft 381 kts 338°
2026-05-04 19:15 48.65570 11.51541 16338 ft 384 kts 338°
2026-05-04 19:16 48.68111 11.50219 17167 ft 388 kts 338°
2026-05-04 19:16 48.70620 11.48908 17953 ft 378 kts 338°
2026-05-04 19:16 48.73147 11.47583 18400 ft 391 kts 338°
2026-05-04 19:16 48.75749 11.46220 19078 ft 397 kts 338°
2026-05-04 19:17 48.78373 11.44846 19833 ft 401 kts 338°
2026-05-04 19:17 48.81025 11.43457 20581 ft 406 kts 338°
2026-05-04 19:17 48.83712 11.42050 21323 ft 411 kts 338°
2026-05-04 19:17 48.86443 11.40662 22014 ft 417 kts 339°
2026-05-04 19:18 48.89269 11.39494 22717 ft 424 kts 347°
2026-05-04 19:18 48.92198 11.38769 23455 ft 430 kts 350°
2026-05-04 19:18 48.95190 11.38220 24082 ft 435 kts 352°
2026-05-04 19:18 48.98209 11.37779 24618 ft 438 kts 352°
2026-05-04 19:19 49.01251 11.37383 24881 ft 438 kts 353°
2026-05-04 19:19 49.04294 11.37000 24926 ft 439 kts 353°
2026-05-04 19:19 49.07342 11.36613 24929 ft 441 kts 353°
2026-05-04 19:19 49.10404 11.36214 24935 ft 441 kts 352°
2026-05-04 19:20 49.13456 11.35806 24934 ft 441 kts 352°
2026-05-04 19:20 49.16525 11.35387 25017 ft 443 kts 352°
2026-05-04 19:20 49.19602 11.34984 25494 ft 446 kts 353°
2026-05-04 19:20 49.22693 11.34632 26234 ft 446 kts 353°
2026-05-04 19:21 49.25796 11.34305 26914 ft 449 kts 353°
2026-05-04 19:21 49.28930 11.33986 27526 ft 453 kts 353°
2026-05-04 19:21 49.32048 11.33668 28127 ft 456 kts 353°
2026-05-04 19:21 49.35229 11.33340 28732 ft 460 kts 353°
2026-05-04 19:22 49.38433 11.33006 29324 ft 463 kts 353°
2026-05-04 19:22 49.41665 11.32665 29909 ft 467 kts 353°
2026-05-04 19:22 49.43855 11.32434 30254 ft 469 kts 353°
2026-05-04 19:22 49.48193 11.31972 30826 ft 474 kts 353°
2026-05-04 19:23 49.51497 11.31619 31250 ft 478 kts 353°
2026-05-04 19:23 49.54829 11.31263 31665 ft 482 kts 353°
2026-05-04 19:23 49.58182 11.30904 32083 ft 485 kts 353°
2026-05-04 19:23 49.61568 11.30542 32475 ft 489 kts 353°
2026-05-04 19:24 49.64971 11.30179 32857 ft 493 kts 353°
2026-05-04 19:24 49.67286 11.29931 33116 ft 495 kts 353°
2026-05-04 19:24 49.70729 11.29562 33510 ft 497 kts 353°
2026-05-04 19:24 49.74238 11.29185 33861 ft 500 kts 353°
2026-05-04 19:25 49.77685 11.28814 34160 ft 503 kts 353°
2026-05-04 19:25 49.81178 11.28439 34563 ft 503 kts 353°
2026-05-04 19:25 49.84665 11.28066 35018 ft 501 kts 353°
2026-05-04 19:25 49.88143 11.27693 35472 ft 500 kts 353°
2026-05-04 19:26 49.91602 11.27320 35849 ft 500 kts 353°
2026-05-04 19:26 49.95068 11.26944 35951 ft 498 kts 353°
2026-05-04 19:26 49.98521 11.26571 35959 ft 495 kts 352°
2026-05-04 19:27 50.05396 11.25823 35958 ft 495 kts 353°
2026-05-04 19:27 50.12255 11.25074 35964 ft 495 kts 352°
2026-05-04 19:28 50.19113 11.24323 35962 ft 494 kts 352°
2026-05-04 19:28 50.25925 11.23574 35967 ft 494 kts 352°
2026-05-04 19:29 50.32783 11.22819 35966 ft 494 kts 352°
2026-05-04 19:29 50.39633 11.22065 35971 ft 493 kts 352°
2026-05-04 19:30 50.46479 11.21307 35970 ft 493 kts 352°
2026-05-04 19:30 50.53331 11.20543 35981 ft 493 kts 352°
2026-05-04 19:31 50.60190 11.19779 35977 ft 495 kts 352°
2026-05-04 19:31 50.67062 11.19013 35981 ft 495 kts 352°
2026-05-04 19:32 50.73947 11.18243 35977 ft 495 kts 352°
2026-05-04 19:32 50.80819 11.17473 35981 ft 495 kts 352°
2026-05-04 19:33 50.87699 11.16700 35971 ft 495 kts 352°
2026-05-04 19:33 50.94574 11.15920 35968 ft 495 kts 352°
2026-05-04 19:34 51.01443 11.15140 35968 ft 495 kts 352°
2026-05-04 19:34 51.08314 11.14360 35970 ft 495 kts 352°
2026-05-04 19:35 51.15173 11.13580 35971 ft 494 kts 352°
2026-05-04 19:35 51.21999 11.12800 35974 ft 494 kts 352°
2026-05-04 19:36 51.28851 11.12013 35990 ft 494 kts 352°
2026-05-04 19:36 51.35710 11.11225 35984 ft 494 kts 352°
2026-05-04 19:37 51.42572 11.10434 35972 ft 494 kts 352°
2026-05-04 19:37 51.49421 11.09642 35972 ft 494 kts 352°
2026-05-04 19:38 51.56287 11.08844 35975 ft 495 kts 351°
2026-05-04 19:38 51.63167 11.08044 35980 ft 495 kts 351°
2026-05-04 19:39 51.70036 11.07242 35980 ft 495 kts 351°
2026-05-04 19:39 51.76914 11.06436 35985 ft 495 kts 351°
2026-05-04 19:40 51.83782 11.05630 35972 ft 495 kts 351°
2026-05-04 19:40 51.90598 11.04711 35970 ft 493 kts 349°
2026-05-04 19:41 51.97393 11.03215 35967 ft 492 kts 347°
2026-05-04 19:41 52.04162 11.01626 35910 ft 488 kts 347°
2026-05-04 19:41 52.07502 11.00875 35293 ft 485 kts 347°
2026-05-04 19:42 52.10857 11.00135 34622 ft 490 kts 347°
2026-05-04 19:42 52.14266 10.99391 33926 ft 496 kts 347°
2026-05-04 19:42 52.17706 10.98645 33146 ft 500 kts 347°
2026-05-04 19:42 52.21164 10.97901 32394 ft 502 kts 347°
2026-05-04 19:43 52.24636 10.97156 31660 ft 504 kts 347°
2026-05-04 19:43 52.28107 10.96412 30967 ft 505 kts 347°
2026-05-04 19:43 52.31590 10.95664 30271 ft 503 kts 347°
2026-05-04 19:43 52.35056 10.94921 29527 ft 500 kts 347°
2026-05-04 19:44 52.38486 10.94183 28743 ft 495 kts 347°
2026-05-04 19:44 52.41883 10.93448 27984 ft 490 kts 348°
2026-05-04 19:44 52.45253 10.92716 27244 ft 486 kts 348°
2026-05-04 19:44 52.48589 10.91990 26521 ft 482 kts 348°
2026-05-04 19:45 52.51902 10.91266 25835 ft 478 kts 348°
2026-05-04 19:45 52.55186 10.90547 25145 ft 474 kts 348°
2026-05-04 19:45 52.58446 10.89833 24485 ft 470 kts 348°
2026-05-04 19:45 52.61658 10.89130 24099 ft 462 kts 348°
2026-05-04 19:46 52.64837 10.88431 23972 ft 462 kts 348°
2026-05-04 19:46 52.68023 10.87726 23953 ft 462 kts 348°
2026-05-04 19:46 52.71209 10.87020 23953 ft 462 kts 348°
2026-05-04 19:46 52.74396 10.86315 23940 ft 462 kts 348°
2026-05-04 19:47 52.77529 10.85610 23446 ft 458 kts 347°
2026-05-04 19:47 52.80654 10.84736 22658 ft 453 kts 344°
2026-05-04 19:47 52.83699 10.83550 22150 ft 446 kts 341°
2026-05-04 19:47 52.86691 10.82262 21967 ft 446 kts 341°
2026-05-04 19:48 52.89694 10.80954 21955 ft 446 kts 341°
2026-05-04 19:48 52.92681 10.79650 21785 ft 441 kts 341°
2026-05-04 19:48 52.95633 10.78361 21072 ft 437 kts 341°
2026-05-04 19:48 52.98571 10.77059 20345 ft 434 kts 341°
2026-05-04 19:49 53.01467 10.75758 19684 ft 430 kts 341°
2026-05-04 19:49 53.04343 10.74448 19033 ft 426 kts 341°
2026-05-04 19:49 53.07182 10.73140 18422 ft 422 kts 341°
2026-05-04 19:49 53.09989 10.71982 17829 ft 405 kts 342°
2026-05-04 19:50 53.12694 10.70682 16904 ft 406 kts 340°
2026-05-04 19:50 53.15376 10.69332 15918 ft 401 kts 341°
2026-05-04 19:50 53.18054 10.68004 15182 ft 400 kts 341°
2026-05-04 19:50 53.20702 10.66706 14520 ft 392 kts 341°
2026-05-04 19:51 53.23292 10.65447 13556 ft 389 kts 341°
2026-05-04 19:51 53.25885 10.64193 12804 ft 386 kts 341°
2026-05-04 19:51 53.28428 10.62968 12051 ft 373 kts 341°
2026-05-04 19:51 53.30872 10.61695 11555 ft 361 kts 338°
2026-05-04 19:52 53.33183 10.60175 11017 ft 353 kts 334°
2026-05-04 19:52 53.35422 10.58603 10587 ft 345 kts 334°
2026-05-04 19:52 53.37605 10.57066 10200 ft 336 kts 334°
2026-05-04 19:52 53.39718 10.55584 9929 ft 319 kts 334°
2026-05-04 19:53 53.41692 10.54215 9530 ft 299 kts 334°
2026-05-04 19:53 53.43599 10.52897 9155 ft 290 kts 334°
2026-05-04 19:53 53.45444 10.51617 8531 ft 287 kts 334°
2026-05-04 19:53 53.47277 10.50336 8082 ft 284 kts 334°
2026-05-04 19:54 53.49093 10.49059 7651 ft 282 kts 334°
2026-05-04 19:54 53.50894 10.47784 7241 ft 279 kts 334°
2026-05-04 19:54 53.52676 10.46518 6820 ft 276 kts 334°
2026-05-04 19:54 53.54421 10.45274 6400 ft 275 kts 334°
2026-05-04 19:55 53.56177 10.44033 5951 ft 273 kts 334°
2026-05-04 19:55 53.57917 10.42798 5473 ft 271 kts 334°
2026-05-04 19:55 53.59649 10.41562 5048 ft 269 kts 334°
2026-05-04 19:55 53.61364 10.40334 4630 ft 267 kts 334°
2026-05-04 19:56 53.63068 10.39115 4193 ft 266 kts 334°
2026-05-04 19:56 53.64759 10.37900 3794 ft 263 kts 334°
2026-05-04 19:56 53.66430 10.36691 3402 ft 260 kts 334°
2026-05-04 19:56 53.68083 10.35486 3059 ft 255 kts 334°
2026-05-04 19:57 53.69662 10.34324 2964 ft 240 kts 334°
2026-05-04 19:57 53.71137 10.33239 2968 ft 223 kts 334°
2026-05-04 19:57 53.72507 10.32239 2972 ft 207 kts 334°
2026-05-04 19:57 53.73812 10.31275 2984 ft 203 kts 332°
2026-05-04 19:58 53.74837 10.29720 2991 ft 200 kts 298°
2026-05-04 19:58 53.75151 10.27478 2994 ft 198 kts 270°
2026-05-04 19:58 53.75072 10.25143 2989 ft 199 kts 264°
2026-05-04 19:58 53.74720 10.22896 2984 ft 200 kts 244°
2026-05-04 19:59 53.73931 10.20964 2995 ft 200 kts 231°
2026-05-04 19:59 53.73041 10.19182 2967 ft 196 kts 231°
2026-05-04 19:59 53.72192 10.17435 2772 ft 190 kts 232°
2026-05-04 19:59 53.71349 10.15707 2484 ft 190 kts 231°
2026-05-04 20:00 53.70516 10.14014 2228 ft 183 kts 232°
2026-05-04 20:00 53.69714 10.12382 1973 ft 180 kts 232°
2026-05-04 20:00 53.68924 10.10774 1735 ft 174 kts 232°
2026-05-04 20:00 53.68184 10.09268 1487 ft 160 kts 233°
2026-05-04 20:01 53.67508 10.07898 1308 ft 145 kts 233°
2026-05-04 20:01 53.66891 10.06625 1092 ft 137 kts 234°
2026-05-04 20:01 53.66289 10.05390 905 ft 135 kts 232°
2026-05-04 20:01 53.65691 10.04210 725 ft 129 kts 233°
2026-05-04 20:02 53.65115 10.03036 558 ft 130 kts 233°
2026-05-04 20:02 53.64533 10.01864 378 ft 131 kts 234°
2026-05-04 20:02 53.63957 10.00686 212 ft 129 kts 233°
2026-05-04 20:02 53.63378 9.99519 51 ft 127 kts 234°
2026-05-04 20:03 53.62879 9.98505 47 ft 96 kts 230°
2026-05-04 20:03 53.62560 9.97862 43 ft 38 kts 230°
2026-05-04 20:03 53.62448 9.97824 43 ft 14 kts 136°
2026-05-04 20:03 53.62430 9.97944 48 ft 10 kts 86°
2026-05-04 20:04 53.62430 9.97966 50 ft 0 kts 86°
2026-05-04 20:04 53.62432 9.97977 50 ft 7 kts 79°
2026-05-04 20:04 53.62467 9.98093 47 ft 13 kts 53°
2026-05-04 20:04 53.62530 9.98225 47 ft 16 kts 51°
2026-05-04 20:05 53.62607 9.98383 46 ft 19 kts 51°
2026-05-04 20:05 53.62698 9.98565 48 ft 21 kts 50°
2026-05-04 20:05 53.62797 9.98767 50 ft 24 kts 49°
2026-05-04 20:05 53.62907 9.98991 47 ft 24 kts 51°
2026-05-04 20:06 53.63013 9.99207 49 ft 21 kts 50°
2026-05-04 20:06 53.63092 9.99382 47 ft 18 kts 57°
2026-05-04 20:06 53.63166 9.99558 48 ft 11 kts 50°
2026-05-04 20:06 53.63212 9.99650 50 ft 8 kts 51°
2026-05-04 20:07 53.63220 9.99666 48 ft 0 kts 51°
2026-05-04 20:07 53.63227 9.99679 48 ft 8 kts 46°
2026-05-04 20:07 53.63281 9.99772 50 ft 13 kts 47°
2026-05-04 20:07 53.63346 9.99897 52 ft 16 kts 49°
2026-05-04 20:08 53.63419 10.00047 50 ft 10 kts 57°
2026-05-04 20:08 53.63415 10.00147 51 ft 9 kts 119°
2026-05-04 20:08 53.63372 10.00189 49 ft 8 kts 159°
2026-05-04 20:08 53.63354 10.00223 53 ft 3 kts 109°
2026-05-04 20:09 53.63354 10.00252 53 ft 5 kts 90°
2026-05-04 20:09 53.63356 10.00329 55 ft 7 kts 87°
2026-05-04 20:09 53.63356 10.00344 55 ft 0 kts 86°